Date,TemperatureHighF,TemperatureAvgF,TemperatureLowF,DewpointHighF,DewpointAvgF,DewpointLowF,HumidityHigh,HumidityAvg,HumidityLow,PressureMaxIn,PressureMinIn,WindSpeedMaxMPH,WindSpeedAvgMPH,GustSpeedMaxMPH,PrecipitationSumIn
2013-2-1,39.0,31.6,25.0,30.0,15.4,3.0,82,53,29,0.00,40.00,10,6,23,0.00
2013-2-2,35.0,29.0,24.0,35.0,21.7,9.0,100,76,47,0.00,40.00,9,5,17,0.04
2013-2-3,52.0,39.1,29.0,40.0,30.3,25.0,100,76,38,0.00,40.00,9,6,17,0.07
2013-2-4,46.0,35.9,28.0,30.0,26.2,23.0,87,69,44,0.00,40.00,7,5,14,0.02
2013-2-5,61.0,48.1,41.0,48.0,38.4,29.0,100,70,52,0.00,40.00,6,5,14,0.00
2013-2-6,63.0,56.7,46.0,48.0,34.0,27.0,95,45,30,0.00,40.00,6,5,12,0.00
2013-2-7,54.0,48.7,44.0,48.0,40.3,26.0,100,77,35,0.00,40.00,10,6,17,0.14
2013-2-8,54.0,44.6,35.0,52.0,41.6,31.0,100,90,57,0.00,40.00,11,6,25,0.18
2013-2-9,57.0,41.6,31.0,31.0,28.7,25.0,91,65,30,0.00,40.00,9,6,22,0.01
2013-2-10,52.0,48.7,46.0,50.0,37.5,28.0,100,69,42,0.00,40.00,18,14,31,0.95
2013-2-11,54.0,51.0,46.0,54.0,47.9,32.0,100,91,51,0.00,40.00,10,5,19,0.54
2013-2-12,47.0,43.8,41.0,41.0,32.7,28.0,96,66,47,0.00,40.00,9,6,18,0.20
2013-2-13,45.0,41.5,37.0,45.0,40.7,35.0,100,97,87,0.00,40.00,11,6,17,0.25
2013-2-14,55.0,44.0,36.0,36.0,33.9,31.0,94,70,44,0.00,40.00,6,4,12,0.01
2013-2-15,59.0,48.7,40.0,41.0,35.5,29.0,81,61,43,0.00,40.00,10,6,16,0.00
2013-2-16,40.0,33.1,26.0,29.0,20.6,11.0,83,62,37,0.00,40.00,11,7,22,0.00
2013-2-17,44.0,32.5,22.0,18.0,11.8,9.0,70,44,26,0.00,40.00,7,5,14,0.00
2013-2-18,56.0,45.0,33.0,29.0,22.4,14.0,49,41,32,0.00,40.00,16,9,34,0.00
2013-2-19,54.0,43.5,37.0,49.0,27.3,14.0,100,60,25,0.00,40.00,16,9,34,0.28
2013-2-20,42.0,35.8,29.0,20.0,14.5,11.0,60,42,30,0.00,40.00,9,6,16,0.01
2013-2-21,56.0,40.0,27.0,43.0,21.5,15.0,100,52,20,0.00,40.00,12,7,17,0.53
2013-2-22,43.0,42.1,41.0,43.0,41.9,41.0,100,99,96,0.00,40.00,19,10,33,1.11
2013-2-23,55.0,46.3,41.0,50.0,45.4,41.0,100,97,82,0.00,40.00,6,3,20,0.46
2013-2-24,57.0,46.5,37.0,43.0,32.1,24.0,94,62,30,0.00,40.00,9,6,19,0.04
2013-2-25,53.0,43.8,37.0,40.0,30.4,24.0,89,59,45,0.00,40.00,18,9,32,0.00
2013-2-26,44.0,40.5,38.0,42.0,39.1,36.0,100,95,80,0.00,40.00,23,12,41,0.73
2013-2-27,56.0,43.7,37.0,37.0,34.3,31.0,98,72,42,0.00,40.00,10,6,22,0.01
2013-2-28,40.0,36.4,33.0,32.0,28.0,25.0,78,71,65,0.00,40.00,10,6,19,0.00